Theta_e
352 353 352 353 352 352 351 351 350 349 354 354 352 355 351 349 349 348 349 347 347 346 344 346 344 342 343 346 347 346 345 347 346 346 347 342 339 340 339 337 338 341 342 342 343 344 344 345 345 346 345 343 344 344 344 344 344 344 344 344 345 345 344 345 345 345 345 345 344 344 344 344 343 344 345 344 345 345 343 343 343 344 344 344 345 345 344 344 344 344 343 343 343 343 343 343 342
351 352 352 351 351 352 351 351 355 355 354 351 349 354 351 350 352 351 354 354 351 344 344 345 342 342 343 344 343 344 346 345 343 343 343 339 339 340 338 338 337 340 342 342 343 343 343 345 346 345 343 343 343 343 343 343 343 343 344 344 344 344 345 344 344 343 343 344 343 343 343 343 344 343 344 344 345 345 341 341 342 343 342 342 343 343 343 344 344 344 344 344 343 343 343 342 342
349 351 351 351 351 351 351 351 356 355 351 350 348 353 353 350 355 357 355 352 347 344 346 344 343 344 343 346 344 346 347 345 343 340 341 340 339 339 339 339 338 340 342 343 343 342 343 345 345 343 342 343 343 343 342 342 342 342 343 341 342 344 344 342 342 343 342 343 343 342 342 342 343 343 343 344 344 344 341 340 341 341 341 341 342 342 342 343 343 344 344 344 343 343 343 342 343
348 350 350 351 350 351 356 359 360 356 351 351 348 351 356 353 355 354 348 345 344 345 345 344 344 344 344 348 346 345 346 344 343 339 340 340 337 339 340 340 341 340 341 343 342 342 343 344 344 342 343 344 342 341 340 341 341 342 343 340 342 343 343 341 342 343 341 343 343 342 342 342 341 342 342 343 345 344 341 339 341 341 340 340 342 342 342 342 343 344 344 344 343 343 343 343 343
349 349 350 351 352 352 359 361 360 357 349 351 350 350 355 354 353 349 344 344 344 345 344 344 345 344 344 346 344 345 346 344 342 337 337 338 336 338 338 338 341 341 341 342 342 342 341 341 341 341 343 342 341 339 339 340 341 343 343 341 342 342 343 343 342 342 341 342 342 341 340 340 341 341 341 342 344 344 342 341 343 343 340 339 341 342 342 343 343 343 343 343 342 343 343 343 343
348 350 351 351 352 351 358 357 354 355 350 351 353 353 355 352 352 347 343 343 342 344 343 344 343 343 344 343 343 344 345 344 341 337 335 336 335 335 335 335 337 340 341 341 341 341 341 341 339 340 342 341 340 339 340 342 343 344 343 342 343 343 343 344 342 342 341 341 340 339 339 339 340 341 340 341 343 345 344 344 345 344 341 339 340 341 342 343 343 343 342 342 342 343 344 343 342
348 350 351 351 351 352 358 356 351 354 350 350 353 356 357 349 347 345 343 344 343 342 342 343 341 345 347 345 346 345 346 343 339 337 336 336 334 333 334 333 334 336 338 338 338 338 340 340 339 340 341 341 340 341 342 344 344 344 342 340 343 344 343 344 343 341 342 342 341 339 339 339 340 341 341 341 343 344 344 344 345 344 343 339 339 340 341 342 343 341 341 341 342 343 343 342 342
348 350 351 353 357 357 358 355 353 354 351 350 351 354 355 348 344 345 347 345 344 343 343 343 341 349 350 345 348 346 345 343 339 338 337 335 334 334 334 334 334 334 335 335 335 335 337 339 340 339 340 341 341 342 343 344 345 344 343 340 342 343 343 345 344 342 341 340 340 339 339 339 340 341 341 342 343 344 345 344 344 344 344 342 339 339 340 341 341 340 340 341 341 341 341 340 341
349 352 352 356 360 358 356 355 354 355 355 353 350 351 349 346 344 346 349 345 344 344 344 343 341 349 349 346 349 347 345 343 339 339 337 335 334 334 335 336 336 335 336 336 335 334 336 339 339 339 340 342 341 341 343 344 344 344 344 340 340 343 343 345 344 342 340 339 339 337 337 338 340 341 341 342 343 343 343 343 342 343 343 343 342 340 341 341 341 341 341 341 338 337 338 339 339
349 352 353 359 359 354 353 355 355 354 356 352 350 349 347 346 345 344 347 345 344 345 345 343 343 347 348 347 348 347 346 342 340 340 338 337 335 335 336 337 337 337 336 336 336 335 337 339 339 339 340 342 341 341 343 344 344 344 345 341 338 342 343 344 345 343 340 338 337 336 336 337 339 341 341 341 342 342 342 340 339 340 342 344 343 342 342 341 340 340 340 337 333 334 338 339 338
349 350 353 360 358 354 353 355 356 354 355 353 349 348 346 346 345 344 345 345 344 346 345 344 346 346 346 347 348 348 346 342 342 342 341 340 337 336 336 337 338 337 337 336 336 336 336 339 340 341 341 342 341 340 342 343 344 344 344 343 338 340 343 343 345 344 341 339 338 337 336 337 338 340 342 341 341 341 342 342 339 338 340 340 341 340 339 339 338 337 336 332 329 333 338 339 338
351 352 357 362 357 354 353 355 355 354 357 357 351 347 347 345 346 347 345 346 345 346 344 345 346 346 348 347 349 349 346 344 343 342 342 340 338 338 338 338 338 337 337 336 337 337 338 341 342 342 342 342 342 341 342 343 344 344 343 344 341 338 341 343 344 343 341 340 339 338 337 337 338 339 339 341 341 341 341 341 340 338 335 332 331 331 330 332 333 332 330 327 328 334 338 339 339
350 353 361 361 355 356 356 357 356 357 359 356 352 348 347 345 346 346 344 345 345 346 345 343 343 345 349 348 349 348 346 346 343 342 342 341 342 342 342 341 338 337 337 337 338 338 340 344 344 342 342 342 342 342 342 342 343 344 343 343 344 341 340 343 343 341 340 340 339 338 337 337 338 338 336 338 341 340 340 340 339 337 334 329 325 322 323 324 326 326 325 325 327 334 338 339 339
349 350 358 359 355 358 358 358 358 358 356 354 352 347 347 346 345 344 344 347 345 345 345 343 343 346 349 348 349 348 346 347 344 344 344 345 346 345 345 342 339 337 337 338 338 340 342 345 344 341 342 343 342 342 342 341 342 343 343 343 344 343 341 342 343 340 339 340 340 339 338 336 337 337 336 337 339 340 340 340 339 337 334 330 324 322 323 324 325 324 324 325 328 335 339 340 339
349 348 357 362 358 357 356 357 359 359 355 355 353 346 347 346 345 344 344 348 345 344 346 344 343 345 348 349 349 348 347 347 345 345 346 347 347 346 346 343 340 338 338 339 339 341 344 345 345 342 342 344 342 342 342 341 342 342 343 343 343 343 342 342 343 341 340 341 340 338 338 335 335 337 337 336 337 338 338 338 338 335 332 329 325 323 323 323 325 325 326 328 332 337 340 340 340
348 349 359 364 357 356 357 359 359 357 356 355 351 346 349 347 345 345 344 345 344 345 345 344 343 342 344 346 347 347 347 347 346 346 346 348 348 347 347 344 341 338 339 340 341 343 344 346 346 342 342 344 343 343 342 342 342 341 343 343 343 343 342 342 343 342 340 340 339 338 337 334 334 337 337 336 336 337 337 336 334 331 330 328 326 324 323 324 324 326 329 331 334 338 340 340 341
348 354 362 360 357 358 358 361 360 358 358 354 347 346 352 350 345 346 346 344 345 345 343 344 344 341 342 344 345 346 347 347 347 347 347 347 347 347 346 344 342 339 340 341 342 343 344 346 346 343 343 344 344 343 342 341 341 342 343 342 343 343 342 342 343 342 339 340 340 338 337 335 335 336 336 337 336 336 335 332 329 327 327 325 324 324 324 324 324 326 329 332 334 337 339 340 341
349 357 359 356 359 363 359 360 359 357 359 353 346 345 350 351 347 347 346 344 344 343 342 343 344 343 343 344 345 347 347 347 346 347 346 347 347 346 345 343 342 340 340 341 343 344 344 345 345 344 344 344 344 343 342 341 341 342 342 341 343 343 342 342 342 343 340 340 340 338 337 335 335 335 335 335 335 334 331 328 326 325 326 326 327 329 329 330 330 331 333 335 337 338 340 341 341
351 355 357 358 359 360 356 356 355 355 357 351 346 346 348 350 347 346 346 344 343 344 345 343 344 345 345 345 346 347 347 346 346 346 346 345 346 345 344 343 342 341 341 343 344 344 344 344 345 344 343 344 343 343 343 342 341 341 341 340 342 343 342 342 342 341 340 341 339 337 337 336 335 335 335 334 332 330 327 325 326 328 330 333 335 337 338 338 338 338 339 340 340 341 341 342 342
350 350 358 363 358 355 353 353 353 352 352 348 347 346 346 348 347 346 345 344 343 346 346 344 345 346 347 346 347 347 346 346 346 346 345 345 345 345 344 343 342 341 342 343 344 343 344 344 344 343 342 343 343 343 342 343 342 341 340 341 343 343 342 342 340 339 339 339 337 337 337 336 335 334 333 331 329 328 328 329 331 334 336 338 340 340 341 342 342 342 342 342 342 342 342 343 343
350 350 359 359 353 354 353 352 352 349 349 348 346 347 347 347 348 346 343 346 346 344 344 343 344 345 346 347 346 347 346 346 346 346 345 344 345 344 344 344 342 342 341 343 343 343 344 344 343 342 341 341 342 341 341 343 344 342 342 343 343 343 341 341 339 339 339 338 336 337 337 336 335 333 331 328 328 331 334 336 338 339 340 341 342 343 343 343 343 343 343 343 344 343 343 344 344
350 351 356 352 351 356 354 351 350 349 348 347 346 349 350 347 348 347 343 347 346 342 343 342 341 342 344 346 346 346 345 346 346 345 345 344 344 344 344 344 343 342 342 343 343 343 344 344 343 343 342 341 341 340 340 343 344 343 344 343 343 341 341 341 340 340 338 337 336 337 336 335 335 332 328 327 331 334 337 339 341 342 343 343 344 345 345 345 345 345 344 344 344 344 344 344 344
352 352 352 351 352 354 353 350 349 350 349 347 347 349 349 348 349 347 343 344 344 341 343 342 341 343 343 345 345 345 345 345 345 345 345 344 344 344 345 344 343 343 343 343 343 344 345 344 343 343 342 341 341 340 340 343 343 344 344 342 341 339 340 341 341 340 337 336 337 336 335 334 333 330 328 329 332 335 338 341 342 343 344 345 346 346 346 345 345 345 345 345 344 344 343 343 343
356 358 353 353 352 351 351 349 348 350 349 348 349 349 348 349 350 348 344 342 342 341 343 342 343 344 344 344 344 344 344 345 345 345 345 345 345 345 345 344 344 344 343 344 344 344 344 344 344 343 342 341 341 341 341 342 343 343 342 341 340 339 339 340 340 339 337 337 337 335 333 332 331 329 328 330 334 337 340 342 343 345 346 347 347 347 346 346 346 345 345 345 344 343 342 342 342
359 362 353 352 352 351 351 348 349 351 349 349 350 349 348 350 350 348 346 343 342 341 342 343 343 344 344 343 344 344 344 345 345 345 345 345 345 345 346 345 344 344 343 344 344 344 343 343 343 342 342 341 340 340 341 342 342 341 341 340 338 337 337 337 337 336 336 337 336 333 330 331 331 330 330 332 335 339 341 344 346 347 347 347 347 347 347 346 346 345 344 344 343 343 342 341 341
356 356 351 351 350 350 351 349 351 351 350 350 350 350 350 350 349 347 344 343 342 342 343 343 344 344 344 343 344 344 344 345 345 345 345 345 346 346 346 346 344 344 343 343 343 343 343 342 342 342 342 341 340 340 340 342 341 339 339 338 337 335 333 331 332 334 336 336 334 330 330 331 332 331 331 332 336 341 344 346 347 347 347 347 347 347 346 346 345 345 345 344 343 343 342 340 339
351 350 350 350 349 349 349 349 350 350 350 349 353 355 351 348 351 350 343 342 342 342 344 344 344 344 343 344 344 344 344 344 344 344 345 345 346 346 346 346 344 343 342 342 342 342 343 342 342 342 341 341 340 340 340 340 339 337 336 337 337 335 331 329 331 333 334 333 330 329 331 332 332 331 331 334 339 344 346 347 347 347 347 347 347 346 346 345 345 345 345 344 343 343 343 341 337
350 351 352 349 349 349 347 349 348 348 350 348 353 357 352 349 354 354 343 340 343 342 345 345 345 344 343 344 344 345 344 344 344 344 345 345 346 346 346 346 344 343 341 341 341 342 341 341 341 341 341 341 340 339 339 338 337 336 337 338 336 332 329 329 330 332 332 331 330 331 332 332 332 331 333 338 342 345 346 346 347 347 347 347 346 346 346 345 346 346 345 345 344 343 343 343 338
350 351 356 352 351 353 347 347 345 346 349 347 350 353 355 357 354 351 343 341 344 343 345 346 345 344 343 345 344 345 345 344 345 344 344 345 346 346 346 345 344 342 341 341 341 340 340 341 341 341 341 340 339 338 337 336 335 336 338 337 333 330 330 331 332 335 337 338 337 335 333 332 331 333 337 341 344 345 346 347 347 347 346 346 346 346 346 346 346 346 345 344 344 343 342 342 340
353 351 354 353 354 355 346 344 344 346 348 345 350 352 357 363 352 347 343 341 343 344 346 346 346 346 344 345 345 344 345 344 345 344 344 346 347 346 346 346 344 342 341 340 340 340 340 341 341 341 340 339 338 337 336 335 336 337 338 334 333 336 337 338 339 340 342 343 342 338 335 333 334 336 340 342 344 345 346 347 346 347 346 346 346 346 346 346 346 345 344 344 343 343 342 341 340
357 349 352 355 351 352 347 343 345 350 349 347 354 356 357 361 352 347 343 340 343 343 344 345 345 346 345 346 345 345 345 344 344 344 344 346 346 346 346 346 344 343 341 340 340 340 340 340 340 340 339 338 337 336 335 336 337 337 335 334 337 341 341 342 342 342 343 344 343 341 337 336 338 341 343 344 345 345 346 346 346 347 347 347 347 346 346 346 346 345 344 343 343 343 342 341 340
354 345 350 356 350 351 352 347 345 352 353 348 353 357 357 356 349 348 345 341 342 342 342 344 343 344 344 345 345 345 345 344 344 344 345 347 347 346 346 345 344 342 340 340 340 340 340 339 339 339 338 337 335 335 335 336 337 336 335 337 340 341 341 342 342 342 342 343 343 343 341 340 341 344 345 345 345 346 346 346 346 347 348 348 347 346 346 346 346 345 344 343 343 342 341 341 340
353 345 348 354 354 355 355 350 345 350 352 350 353 355 356 353 347 349 347 342 342 342 342 342 342 342 342 343 344 344 345 345 345 344 346 346 346 347 346 345 343 341 341 340 340 340 339 337 338 338 336 335 335 335 336 337 337 337 338 339 341 341 342 342 341 342 342 342 342 343 343 342 342 344 345 345 345 345 346 346 346 348 348 348 347 347 346 346 346 345 345 343 342 342 341 341 341
352 348 349 351 355 355 353 352 348 350 351 352 357 356 355 354 349 350 348 342 342 341 341 342 341 342 342 342 343 343 344 344 344 344 346 347 347 347 347 346 343 341 340 340 340 340 338 336 336 336 335 335 336 336 336 337 338 339 339 340 341 342 343 342 342 342 343 343 342 342 343 343 343 344 345 345 346 345 346 347 347 348 348 348 347 347 346 346 346 346 344 343 342 342 340 341 341
355 351 352 351 355 354 354 355 352 353 353 354 359 357 357 356 351 351 349 344 342 341 341 341 341 342 342 342 343 343 343 343 343 345 347 346 347 347 347 346 344 341 341 340 341 341 337 336 335 335 335 336 336 337 338 339 340 340 340 341 341 341 343 343 342 342 342 342 342 342 342 343 343 344 345 346 346 346 346 346 347 347 347 347 346 346 347 346 346 346 344 342 343 342 341 340 340
360 359 360 357 357 354 355 359 355 353 354 357 359 358 362 361 354 354 351 346 342 341 342 341 342 343 342 343 343 343 343 343 344 346 347 347 346 347 347 347 344 342 341 340 342 341 338 335 335 335 336 337 337 338 339 340 340 341 341 341 341 342 343 343 342 341 341 341 341 341 341 342 343 344 345 346 346 346 346 345 346 347 347 347 347 346 346 346 346 346 344 343 343 342 342 341 340
358 361 361 358 356 353 356 362 356 351 352 356 359 358 362 362 356 354 352 350 345 342 342 342 343 344 343 344 344 344 344 344 345 347 347 347 346 347 347 347 344 343 341 341 342 341 339 336 335 336 336 338 338 338 340 341 341 340 341 341 341 342 342 341 340 339 339 340 340 340 341 342 343 344 345 345 346 346 346 345 346 346 346 347 348 347 346 346 347 346 345 345 344 343 342 342 341
351 356 356 354 354 353 354 359 355 350 350 355 357 358 359 358 354 351 350 353 350 345 344 343 344 344 344 345 345 345 345 345 346 347 347 347 347 347 348 348 345 344 342 341 341 341 340 338 337 337 338 339 340 341 341 341 340 341 341 341 341 342 341 339 338 338 339 340 340 340 341 341 341 343 345 345 346 345 345 345 346 346 346 347 347 347 347 347 347 346 345 345 344 343 342 342 342
339 351 352 350 354 353 350 354 355 352 351 355 357 358 361 358 353 349 348 353 352 347 346 344 345 345 345 345 345 346 346 346 347 346 347 347 347 347 347 348 347 345 344 342 342 342 341 340 338 339 340 341 343 343 342 341 341 342 342 341 341 341 341 340 341 342 343 343 343 342 341 341 342 343 344 345 345 346 345 345 346 345 345 347 347 347 347 347 346 346 345 345 345 344 343 343 342
332 349 352 349 354 352 347 349 354 355 352 354 355 357 361 359 356 352 347 350 352 350 349 347 345 345 345 345 346 346 346 346 347 346 347 346 347 347 347 348 348 347 345 343 342 343 342 341 339 340 340 341 343 343 342 342 342 343 343 341 341 342 342 342 343 344 345 345 346 344 341 340 342 344 344 345 345 345 345 344 345 344 344 347 348 347 347 347 347 346 345 345 345 344 344 343 343
330 344 354 357 357 354 353 353 354 354 351 353 354 352 358 360 358 356 349 348 352 351 351 350 346 346 346 346 346 346 347 346 347 347 346 346 346 347 347 348 348 348 347 345 343 343 343 341 340 341 341 341 343 343 342 343 343 343 343 342 342 343 343 343 343 344 344 345 346 345 343 341 341 344 345 345 346 346 345 344 343 343 344 346 347 347 347 347 348 346 346 345 344 345 344 344 344
331 341 351 355 357 358 358 354 352 353 351 353 350 344 352 360 356 354 352 351 353 351 351 351 349 348 347 346 346 346 347 347 347 347 346 347 347 347 347 347 348 348 347 346 344 343 343 342 342 342 342 342 343 343 343 343 343 343 343 342 343 342 343 342 343 343 344 345 345 345 343 341 340 342 344 346 347 347 346 345 344 343 344 344 345 346 346 346 347 346 346 345 344 345 345 344 345
332 338 344 349 357 360 356 352 353 353 350 350 349 342 345 357 358 353 350 352 354 352 351 351 350 350 348 347 346 346 347 347 347 347 347 347 347 346 347 347 348 348 347 346 346 345 345 344 343 343 343 343 343 343 343 343 343 343 343 342 343 343 342 343 342 343 344 345 346 345 342 341 340 340 342 344 345 347 347 347 346 345 345 344 343 344 345 344 344 343 343 345 344 345 345 344 345
326 331 344 351 358 358 353 352 354 354 349 348 354 348 342 352 356 349 346 351 354 352 352 351 349 350 350 348 347 346 347 347 347 347 347 347 347 346 346 347 347 347 347 347 347 347 346 344 344 344 343 342 341 342 343 343 343 343 343 344 344 343 342 343 343 343 344 345 346 345 343 341 341 340 340 340 342 345 346 346 345 345 345 344 342 343 343 342 341 340 341 343 344 344 344 344 344
324 335 348 350 353 354 352 352 354 353 346 343 352 350 343 352 357 349 347 352 354 353 352 350 349 350 351 349 348 347 347 348 347 347 347 347 347 346 346 346 346 347 347 347 347 347 347 344 343 344 344 342 341 342 342 342 343 343 344 344 344 344 343 343 343 343 344 346 346 345 343 341 341 340 340 340 340 342 342 343 343 344 343 342 341 342 342 341 341 342 343 345 346 347 346 345 344
330 340 346 343 345 350 350 353 354 350 344 343 349 350 344 349 359 356 351 353 356 355 351 347 347 349 352 350 349 347 347 347 347 347 347 346 347 346 346 346 346 347 347 347 347 348 347 346 344 344 344 343 342 342 342 341 342 343 343 344 345 345 344 343 344 344 345 346 345 344 342 341 341 340 340 340 340 340 340 341 342 343 342 342 341 341 341 341 341 343 346 346 347 348 347 347 344
336 344 345 343 345 348 352 355 352 346 345 345 345 347 341 340 353 359 355 357 359 357 354 349 345 347 350 351 350 349 347 347 347 347 347 346 347 346 346 347 346 347 347 347 347 348 348 347 345 345 344 344 342 342 342 341 342 342 343 344 345 345 344 344 344 344 345 347 346 343 341 341 341 341 341 340 340 341 341 342 342 342 342 342 342 342 342 341 342 343 346 347 348 348 347 347 346
335 347 346 343 342 345 350 350 347 344 344 345 344 345 340 336 346 355 357 360 358 355 356 352 346 345 348 350 350 350 349 348 347 347 347 347 346 346 346 347 347 347 347 347 348 348 348 347 346 346 345 345 343 342 342 342 342 343 343 343 344 345 345 345 345 345 346 347 346 343 342 341 340 340 341 341 341 341 342 343 342 341 342 342 343 343 342 342 342 343 345 347 348 347 346 345 345
336 345 339 335 334 340 349 345 343 344 340 341 344 344 342 343 349 351 354 356 352 348 348 347 344 343 346 349 349 350 350 349 348 347 347 347 346 346 346 347 347 347 347 347 347 347 347 347 347 347 346 345 345 344 343 343 342 342 342 342 344 346 346 346 346 346 346 347 346 345 344 342 340 340 341 341 342 342 343 343 342 341 341 342 342 342 343 342 342 342 344 347 347 347 348 348 347
337 339 330 331 333 335 341 337 335 335 335 340 343 343 345 347 349 351 351 348 345 343 344 345 346 345 345 347 348 350 350 350 349 347 347 347 347 346 346 347 347 347 347 347 347 347 347 347 347 347 346 345 345 344 344 342 340 340 341 341 344 346 347 347 346 346 346 347 347 347 346 344 343 343 342 342 343 344 344 342 342 341 341 341 342 342 342 343 343 343 344 346 348 349 350 350 350
328 329 325 329 334 330 329 331 334 333 336 341 339 339 346 344 342 347 346 342 342 344 346 348 347 347 348 346 347 350 350 350 350 348 347 347 347 347 346 347 347 347 348 347 347 347 347 347 347 346 346 346 344 344 344 341 337 337 338 340 343 346 346 346 346 346 347 347 347 346 346 345 345 345 344 343 343 345 345 343 342 341 341 341 341 341 341 342 343 344 345 347 349 349 348 349 349
323 325 324 323 330 335 330 329 338 338 336 341 338 339 349 347 344 346 343 341 343 342 345 349 349 349 349 347 347 349 350 351 350 348 348 347 347 347 347 347 347 347 347 348 347 347 347 347 347 346 346 346 345 343 343 340 335 335 337 340 343 345 345 346 346 346 346 347 347 346 345 345 346 346 345 345 344 345 345 344 343 342 341 341 340 341 341 342 343 345 347 347 346 346 346 346 347
329 329 326 325 329 341 337 327 336 337 329 336 339 341 350 348 343 349 353 353 350 345 345 346 348 350 350 350 349 348 350 351 351 349 348 348 347 347 347 347 347 348 347 347 347 347 347 347 347 346 346 346 345 344 343 340 336 334 336 339 342 343 344 345 345 345 346 347 346 346 345 345 346 345 345 346 345 346 346 345 345 344 343 341 342 343 343 344 345 345 345 344 343 343 344 344 343
335 331 328 329 327 335 338 331 336 335 328 336 340 339 347 344 341 350 358 360 357 354 349 343 345 349 349 350 351 349 350 350 350 350 348 348 348 347 347 347 347 348 347 347 347 347 347 347 347 347 346 346 345 343 342 340 336 333 333 336 338 340 343 344 345 344 345 346 345 344 345 345 346 346 345 345 345 345 346 345 346 346 345 342 343 345 345 345 345 345 344 343 342 342 341 341 341
330 330 329 329 329 332 331 328 333 331 328 338 341 338 342 344 349 354 355 358 360 358 356 350 347 347 347 349 351 350 351 351 350 351 349 348 348 347 347 347 347 348 347 348 347 347 348 347 347 347 346 346 344 343 342 340 338 334 332 334 335 338 341 343 344 344 344 345 343 343 345 345 345 345 344 343 343 343 344 345 346 347 346 345 346 348 348 348 348 346 344 343 342 343 342 342 342
327 331 330 332 340 340 332 328 331 330 331 338 339 339 342 347 357 361 356 360 363 359 361 357 346 345 347 347 349 350 351 351 351 351 350 349 348 347 346 346 347 347 347 348 348 348 348 347 347 347 346 347 346 344 342 340 339 336 334 333 333 336 340 341 342 343 343 343 342 342 344 344 345 345 343 342 342 342 343 344 345 345 346 347 349 350 350 351 350 348 346 344 344 345 344 343 344
330 332 331 332 337 333 330 333 333 332 336 340 337 337 347 352 354 359 360 363 362 357 357 354 345 345 347 347 347 349 350 351 352 351 351 350 348 347 347 347 347 347 347 348 348 348 348 347 347 347 347 347 347 346 343 340 338 337 336 335 333 334 337 339 340 341 341 341 341 341 342 343 344 344 343 342 342 343 344 344 344 344 344 346 348 349 349 348 347 347 347 347 346 346 345 345 345
334 336 334 335 336 333 333 333 333 335 336 340 336 333 346 354 347 353 361 358 355 350 347 348 345 345 347 348 348 347 348 350 351 351 351 350 349 347 348 348 347 347 346 346 348 348 348 348 347 347 347 347 347 346 343 341 339 338 336 335 335 334 335 337 338 338 338 338 339 340 341 342 343 343 343 343 343 343 345 346 347 347 347 347 347 347 347 345 344 345 347 347 346 346 346 347 346
Wind_Speed
3 1 1 2 4 3 3 2 1 2 2 3 1 1 1 2 1 1 1 1 1 6 8 10 20 16 5 4 6 5 5 5 3 2 3 10 20 20 18 17 17 16 17 17 16 15 15 15 13 12 12 11 10 10 10 10 9 9 11 11 10 10 10 10 10 10 11 11 11 11 11 11 11 11 11 12 12 12 11 11 12 12 12 13 14 14 16 16 15 16 16 15 15 15 16 15 15
2 1 2 3 4 3 2 1 2 2 3 3 1 1 1 2 0 2 4 4 2 6 8 15 23 12 5 9 9 6 5 2 2 5 11 21 24 20 19 17 16 17 16 16 15 14 15 14 13 11 11 10 9 9 9 9 9 8 10 11 10 10 11 11 10 10 10 11 11 11 11 11 11 11 11 12 13 12 11 11 12 12 11 12 13 14 15 16 15 16 16 16 16 15 15 15 16
1 3 4 4 3 1 1 2 2 2 4 3 0 2 2 2 2 4 4 3 5 10 13 19 18 7 6 8 5 2 2 1 4 12 19 25 24 21 20 17 17 16 15 15 14 14 14 13 12 11 10 9 8 8 9 9 9 8 9 11 10 10 11 10 11 10 10 11 10 11 11 11 11 11 11 12 13 13 12 11 12 12 11 11 13 14 14 15 15 15 16 16 16 15 15 15 15
2 5 6 5 2 1 0 3 2 3 3 3 1 2 2 2 4 2 1 4 10 13 16 18 10 4 5 5 3 2 3 2 9 18 22 24 23 22 21 18 17 15 15 14 13 13 12 12 11 10 10 9 8 8 9 9 9 9 9 10 10 10 11 10 11 11 11 11 10 10 10 10 10 10 11 13 13 14 14 12 12 12 11 11 12 14 14 15 14 15 16 16 16 15 14 13 13
3 6 6 3 1 1 1 3 1 3 2 2 2 2 4 2 3 4 5 8 8 7 12 13 5 5 6 5 3 2 3 5 13 19 23 23 21 22 21 18 16 15 15 13 13 12 11 10 10 10 9 8 8 8 9 9 9 10 9 9 11 10 10 11 11 12 11 10 10 10 10 10 10 10 11 13 13 13 16 14 13 13 12 12 12 14 14 14 14 14 15 15 15 14 13 12 12
5 6 5 1 1 1 2 3 3 3 1 2 2 3 4 2 3 3 7 9 7 6 9 10 8 9 8 7 7 5 3 5 15 20 23 23 21 21 19 17 16 15 14 13 12 11 11 10 9 9 8 8 8 8 9 9 9 11 10 9 10 10 10 11 11 12 11 10 10 10 9 10 10 10 10 11 11 11 16 16 14 14 13 12 12 14 14 14 14 14 15 15 14 13 12 12 12
7 6 3 1 1 1 3 3 3 1 1 3 2 2 3 2 3 3 6 7 7 8 8 11 14 11 5 4 8 7 4 5 15 20 21 21 21 20 17 17 16 15 14 13 12 11 10 10 10 9 8 8 7 8 8 9 9 11 11 9 10 10 11 11 11 12 12 11 10 9 9 10 10 11 10 10 10 10 14 15 14 14 15 14 13 13 14 14 13 14 14 14 13 13 12 11 11
8 6 3 1 1 2 3 3 2 0 0 1 2 2 3 3 4 3 2 3 5 6 10 13 12 8 2 2 5 5 5 8 15 18 19 20 20 19 17 16 15 15 14 12 12 11 10 10 10 9 8 8 7 7 7 9 9 10 11 11 11 10 11 12 13 12 12 11 10 9 8 9 10 11 11 10 10 10 12 14 14 13 15 17 16 14 13 13 13 14 14 13 12 11 11 10 11
8 6 2 1 2 2 3 2 1 0 1 2 2 2 2 2 3 3 2 2 6 9 11 10 7 6 4 6 8 5 5 9 15 18 18 19 19 18 16 15 13 14 13 12 11 11 11 10 10 9 9 8 7 7 7 8 9 10 10 12 13 11 11 12 13 13 12 11 10 9 8 9 10 12 12 11 11 10 11 12 12 13 14 16 17 16 14 13 14 14 14 12 11 11 10 10 10
7 3 1 1 3 4 3 2 1 0 1 2 2 2 4 4 3 4 3 3 8 10 7 4 6 10 8 7 7 4 6 11 16 17 17 17 16 16 15 13 11 11 11 11 11 11 11 10 10 10 10 9 8 7 8 8 9 10 10 11 13 12 12 13 13 13 13 11 10 9 8 9 9 11 11 11 11 11 11 13 13 12 12 13 14 15 14 13 13 14 13 11 11 11 11 9 9
5 2 2 2 3 3 2 1 1 1 2 2 2 2 6 4 5 6 4 5 8 10 8 6 9 14 10 6 5 5 9 13 15 17 17 15 14 14 13 13 11 10 10 10 11 11 11 10 10 10 10 9 8 7 7 7 8 9 9 11 12 12 12 13 13 13 13 12 10 8 8 9 9 10 11 11 12 12 11 13 14 12 10 10 12 12 13 13 13 13 12 11 11 11 10 9 9
4 3 2 3 3 2 2 2 2 1 2 1 1 3 6 3 5 6 5 5 8 10 7 6 12 14 7 3 5 8 11 13 14 16 15 14 13 13 13 12 12 10 10 10 11 11 11 12 11 10 10 9 8 8 7 7 8 8 9 10 12 12 12 13 13 13 13 12 10 7 7 8 8 9 10 11 11 12 12 12 13 12 11 11 12 13 13 13 13 12 11 11 11 11 10 9 9
3 2 2 2 1 2 2 2 1 1 2 1 1 3 5 3 5 8 6 5 8 8 2 7 17 14 6 4 8 11 14 14 14 15 14 14 13 12 12 11 12 11 10 10 11 11 12 12 11 11 10 10 10 9 9 7 7 8 8 10 12 12 11 12 13 13 12 12 10 7 7 7 8 8 10 11 11 12 12 12 12 12 12 12 13 14 13 13 12 12 11 11 11 11 10 9 9
4 3 2 2 1 2 2 1 1 2 1 2 1 4 4 4 5 9 10 7 3 3 5 13 18 11 6 7 8 14 16 16 15 14 14 13 12 11 11 11 11 11 10 10 10 11 12 13 12 11 10 10 9 9 9 8 8 8 8 9 11 11 11 11 13 13 13 11 9 8 8 8 8 8 9 10 11 11 12 12 12 12 13 13 13 13 13 12 12 11 11 11 11 11 10 10 9
4 3 2 2 2 2 1 1 2 3 1 2 1 3 4 5 7 8 10 6 2 6 12 14 14 6 7 8 9 19 18 17 17 14 15 13 12 11 11 11 11 11 10 10 10 11 11 12 12 10 10 9 9 8 8 8 9 9 8 8 10 11 12 12 13 13 13 12 9 9 9 9 9 9 10 10 11 11 11 11 11 12 12 13 13 13 13 12 12 12 12 12 11 11 10 10 9
2 2 3 2 2 1 1 2 3 3 2 3 1 2 4 5 8 7 6 4 6 14 9 8 10 4 6 11 12 22 19 18 17 15 16 14 13 12 11 11 11 11 10 10 10 11 11 11 11 9 9 8 8 8 8 8 9 9 9 9 9 11 12 12 13 13 13 12 10 10 10 10 11 10 11 10 10 10 10 10 11 11 12 13 14 14 14 13 13 13 13 12 11 11 10 9 8
1 1 3 2 1 2 2 3 3 3 2 3 2 3 4 5 7 6 4 6 13 13 3 5 9 4 5 12 15 22 19 18 17 15 16 13 13 12 11 12 12 12 10 11 11 10 10 9 9 9 9 8 8 8 9 10 10 11 10 10 10 11 12 12 13 13 13 13 11 10 10 11 11 11 11 10 10 10 10 10 11 13 13 14 14 14 14 14 14 13 13 12 11 10 9 9 7
0 2 2 1 1 3 4 4 4 3 2 3 4 5 6 6 5 6 6 9 14 8 3 8 6 2 8 14 18 22 18 18 16 14 14 12 12 11 12 12 12 13 11 11 11 10 10 9 8 8 9 8 8 8 9 10 10 10 10 11 11 11 11 11 12 13 13 13 11 10 10 10 11 11 11 10 10 10 11 12 14 15 16 16 16 15 15 15 14 13 13 12 11 9 8 7 6
2 2 2 2 2 2 1 4 5 3 4 5 5 5 6 6 6 6 5 8 12 6 5 8 7 7 10 15 20 20 18 17 15 14 12 11 12 12 12 12 13 13 12 12 11 10 9 9 8 8 9 8 9 9 10 10 9 10 11 11 11 11 11 11 12 12 12 12 11 10 10 11 11 11 11 10 10 11 13 15 17 17 17 17 16 15 15 14 13 12 11 10 9 7 6 5 5
2 2 1 3 2 1 2 3 5 2 7 8 6 5 4 6 6 5 8 8 8 6 8 10 11 14 14 18 21 19 18 16 14 13 11 11 11 10 10 10 12 13 13 12 11 10 9 9 8 8 9 9 10 11 11 11 11 11 12 12 10 10 10 10 11 11 12 11 11 11 11 12 12 12 12 11 13 14 16 17 17 17 16 16 15 14 13 11 10 9 8 7 6 5 5 4 4
3 4 2 4 2 2 2 1 3 2 8 10 7 6 3 4 4 4 11 9 2 8 16 14 14 20 19 22 21 19 18 15 14 13 11 12 10 9 8 8 10 10 11 11 11 11 10 10 8 8 8 9 9 11 12 12 12 12 13 13 11 10 10 10 10 11 11 11 12 12 12 13 12 12 12 13 16 17 18 18 17 16 15 14 13 11 10 9 8 7 6 5 4 4 4 4 5
3 2 0 1 2 3 2 2 4 2 6 9 9 6 2 3 1 4 14 9 6 16 21 16 16 21 22 23 22 19 18 15 15 14 13 12 10 9 8 8 9 9 9 10 11 11 11 11 10 9 9 9 8 9 12 12 13 13 13 12 11 10 10 9 10 10 10 12 13 13 12 13 12 13 14 16 18 18 18 17 15 14 12 11 10 9 8 7 6 5 5 4 4 5 6 6 6
2 0 4 4 2 3 2 3 4 2 4 6 6 4 2 3 2 5 16 16 12 17 20 17 16 19 21 22 21 19 17 15 14 13 13 11 10 9 8 8 7 8 9 10 11 11 11 11 12 11 10 10 10 11 12 12 12 12 12 11 10 10 10 9 9 9 10 12 14 13 13 13 13 14 16 18 18 17 16 15 13 11 10 9 8 8 7 6 5 4 3 3 4 5 5 6 5
2 1 4 6 6 5 3 4 4 2 2 3 3 3 2 3 3 4 15 22 15 12 18 18 18 20 20 20 19 18 16 14 13 12 12 11 9 7 7 6 6 7 8 10 10 10 11 12 12 12 12 12 12 13 13 12 12 12 11 10 10 10 10 10 10 10 11 13 14 14 13 14 14 15 17 18 17 16 14 13 11 9 8 8 7 7 6 5 4 3 2 1 2 3 3 4 4
2 2 2 4 7 6 5 5 4 3 3 1 1 3 3 2 4 3 9 20 17 13 18 19 20 22 20 19 18 17 16 14 13 13 13 11 9 8 8 7 7 7 8 10 10 9 10 11 12 12 12 12 13 14 13 12 12 13 12 11 11 11 11 11 11 12 13 14 14 14 14 14 15 16 17 17 16 15 13 11 9 8 8 7 7 6 5 4 3 2 1 1 1 1 1 2 3
2 4 3 4 6 7 6 4 3 3 2 1 1 1 1 2 3 1 3 15 19 18 20 21 23 23 21 20 18 17 16 14 14 13 13 12 10 9 8 8 7 8 8 10 9 10 11 12 13 12 12 13 12 13 13 13 13 14 13 12 12 11 11 11 12 13 14 14 14 14 15 14 15 16 17 17 16 14 12 10 9 8 7 6 6 5 5 4 3 2 2 2 2 2 3 2 1
9 11 8 7 7 8 6 7 7 5 5 3 2 1 1 2 3 0 3 15 21 22 23 24 25 24 22 21 18 18 16 14 13 13 13 12 11 10 9 8 8 8 9 9 10 11 12 13 13 13 13 13 13 13 14 14 15 15 15 14 13 11 12 13 14 15 15 15 14 15 14 14 16 17 17 17 16 13 11 9 8 7 6 5 5 5 4 3 3 2 2 3 3 4 4 4 3
14 13 9 7 8 9 8 7 7 5 2 3 4 2 3 2 3 1 7 19 23 24 25 25 26 24 22 21 20 19 17 15 14 14 13 12 10 10 9 8 8 8 9 9 10 12 12 13 13 13 13 13 14 14 16 17 17 16 16 15 14 13 14 16 17 17 16 15 14 14 14 15 16 17 17 17 15 12 10 9 8 7 6 5 4 4 3 2 2 2 2 3 4 5 5 3 3
10 9 5 4 4 6 7 5 8 7 2 4 3 3 3 3 2 1 12 21 23 25 26 26 26 24 23 22 21 20 19 18 16 14 12 10 9 8 9 8 7 7 9 10 11 12 13 13 13 13 13 14 15 17 18 18 18 17 16 16 16 17 17 18 17 16 15 14 13 13 14 15 16 17 17 15 13 11 10 9 8 7 6 5 4 3 2 2 1 1 3 4 5 5 5 2 3
6 6 3 2 3 3 5 2 5 5 4 6 3 3 2 4 3 3 16 22 23 24 24 26 25 24 24 23 23 21 20 19 17 14 11 10 9 9 8 8 8 7 9 11 12 12 13 13 13 13 14 15 17 19 19 19 18 18 17 18 18 18 18 17 15 14 14 13 12 12 14 15 16 16 15 14 12 11 10 9 8 7 6 5 4 3 2 2 1 1 3 5 5 5 4 1 3
3 3 2 2 2 1 3 4 2 2 4 4 5 3 3 5 4 4 16 22 24 23 22 24 23 23 24 24 24 22 21 19 16 13 10 10 10 9 9 9 8 8 10 11 12 13 13 13 13 15 16 17 19 20 19 19 18 18 18 18 18 17 16 14 13 13 12 12 11 11 12 14 15 14 13 12 12 11 10 9 8 7 5 4 3 2 2 2 1 2 4 5 6 6 4 1 3
2 1 3 2 2 0 2 6 7 3 2 4 5 2 2 6 5 3 13 22 25 23 22 23 22 22 24 25 25 24 22 20 17 14 10 10 12 10 9 9 8 8 10 11 12 13 13 13 14 17 19 20 20 20 19 19 18 18 18 18 17 15 13 12 12 11 11 10 10 10 10 12 13 13 12 12 11 10 9 8 7 5 4 2 2 2 2 2 1 3 3 4 5 6 3 1 3
3 1 2 2 2 2 1 3 8 5 1 4 3 2 1 5 5 3 11 21 23 22 21 21 22 23 24 25 25 24 23 21 20 18 13 12 12 10 9 9 8 9 10 11 13 14 14 15 16 18 21 21 21 19 19 19 18 18 18 17 16 14 12 11 11 11 10 10 9 10 10 11 12 12 12 12 10 9 8 7 6 4 3 2 2 2 2 1 2 3 2 3 5 6 3 2 3
3 2 1 2 1 2 2 0 6 5 1 2 3 2 3 4 3 2 10 20 20 18 20 20 21 23 23 24 24 24 24 23 22 20 16 14 12 10 9 10 9 9 11 12 12 14 15 16 18 20 22 22 21 20 20 19 19 19 17 16 14 12 11 11 11 10 9 9 8 9 9 10 12 12 11 11 10 9 7 6 6 5 3 3 2 2 2 1 1 2 2 2 4 5 2 3 3
2 2 1 1 0 1 1 2 3 4 2 1 2 1 4 4 4 1 6 17 20 17 19 20 20 23 24 24 24 25 25 24 22 20 17 15 13 10 9 10 11 11 12 13 13 14 15 17 19 21 22 21 20 20 20 20 20 19 17 15 14 12 11 10 10 9 9 8 8 9 9 9 10 10 10 10 10 9 7 6 6 5 4 3 2 2 2 1 2 2 3 2 3 3 2 2 2
5 5 4 3 2 1 2 0 2 5 3 1 3 2 3 3 3 2 2 11 20 18 16 18 19 21 23 24 24 25 26 25 21 19 17 15 14 11 10 11 11 12 13 13 14 15 17 18 20 21 21 21 20 21 21 21 21 19 17 15 14 13 11 10 9 8 8 8 8 8 8 7 7 8 9 10 10 9 7 7 7 5 3 2 2 2 2 2 3 3 3 3 3 2 2 2 3
5 4 3 4 4 0 1 2 2 5 3 1 2 1 4 3 3 4 1 4 14 17 14 16 19 21 23 23 24 25 26 25 21 19 18 16 14 13 12 12 13 13 14 15 15 17 18 19 21 21 21 20 21 22 22 21 21 20 18 17 15 13 11 10 9 8 8 8 7 7 5 5 6 7 9 10 10 9 7 7 7 5 3 2 3 3 3 3 4 4 4 3 3 3 2 2 3
3 4 3 3 3 1 2 1 4 5 2 1 0 1 6 5 3 4 3 2 8 15 16 16 19 21 23 24 24 25 25 24 22 20 20 18 16 15 14 14 14 15 15 16 16 17 19 20 21 21 21 21 21 22 21 21 20 19 17 16 14 12 11 9 8 7 7 6 6 5 5 5 6 7 9 10 10 9 8 8 7 6 4 4 4 4 4 5 5 4 4 4 4 5 4 4 3
2 2 4 2 2 3 1 2 3 3 1 2 1 2 7 6 4 4 6 6 6 13 17 18 20 21 23 25 24 24 24 24 24 22 22 20 19 18 17 16 15 15 16 17 17 17 19 21 22 22 22 22 21 21 22 21 19 17 15 14 12 11 10 9 8 6 5 5 4 4 5 6 7 8 9 10 11 9 8 8 8 7 5 5 5 5 5 6 6 5 4 4 5 5 5 5 5
3 3 3 2 4 4 0 0 2 3 2 1 2 3 5 6 3 4 8 11 9 9 12 15 21 22 23 26 27 26 26 26 25 24 23 22 21 20 19 18 17 16 17 18 18 18 19 20 22 22 22 22 21 21 21 20 18 16 15 13 12 10 9 9 8 7 5 4 4 5 5 7 9 9 10 11 11 9 9 9 9 8 7 6 5 6 6 6 6 5 5 4 5 5 5 5 5
2 5 5 4 5 4 2 4 4 3 2 2 4 2 4 4 4 5 4 7 9 10 10 12 18 21 22 24 26 28 29 28 27 26 25 24 23 22 21 19 18 17 18 19 20 20 19 20 22 22 22 22 21 21 21 20 19 17 16 15 13 12 11 10 10 9 7 6 6 6 6 8 10 11 11 10 10 9 9 9 10 9 8 7 7 7 6 7 7 6 5 4 4 5 5 5 5
4 4 7 6 7 6 7 9 6 3 2 2 3 2 4 4 3 5 1 2 6 7 9 12 17 18 19 23 26 28 28 28 27 26 25 25 24 23 22 21 20 18 17 19 21 20 19 20 21 22 22 22 21 21 22 21 20 19 17 16 15 14 13 12 11 9 7 6 6 6 7 9 11 12 12 11 10 9 9 9 9 9 9 8 9 9 8 8 8 7 6 5 5 6 6 6 5
3 4 7 8 10 10 11 10 5 2 2 3 2 3 3 5 4 4 3 2 5 4 6 12 17 18 18 24 28 29 30 30 29 27 25 25 24 24 25 24 23 20 17 18 21 21 20 20 21 22 22 22 21 22 23 22 20 19 18 16 15 14 12 11 10 9 7 5 6 7 9 10 11 12 13 12 11 10 10 10 10 10 10 10 10 10 9 9 9 9 8 7 6 6 6 6 6
2 3 6 11 10 11 11 9 4 2 2 3 4 3 0 3 4 4 3 3 5 5 6 9 16 19 19 22 27 31 32 32 31 30 28 26 25 25 26 25 24 22 18 18 21 21 20 20 21 22 22 22 22 22 23 22 21 20 18 16 14 13 11 9 8 8 8 7 7 8 10 11 11 12 13 13 12 12 11 11 11 11 11 11 10 10 10 10 10 10 9 8 7 7 7 6 6
3 2 9 9 8 8 6 6 3 1 2 3 4 2 2 4 5 4 2 3 5 8 8 9 14 20 20 22 25 30 33 33 33 32 30 28 27 26 26 25 24 23 20 19 19 21 21 19 19 21 23 23 23 23 23 23 22 21 18 16 14 13 12 10 9 9 9 9 9 10 11 11 12 12 12 12 12 13 12 12 12 11 11 11 11 11 10 10 10 10 10 9 8 7 7 7 7
1 6 12 9 8 7 5 4 3 2 3 1 5 1 2 4 5 3 2 1 5 8 7 8 16 22 23 23 24 27 31 34 34 34 32 30 28 27 26 25 25 24 22 20 19 20 22 20 19 20 23 23 24 23 23 23 22 21 19 16 15 14 13 12 11 11 11 10 10 11 12 12 12 11 11 11 12 12 12 12 11 11 11 11 12 12 11 10 10 10 10 9 8 8 8 8 8
8 8 10 9 7 5 4 3 3 4 2 4 6 3 4 1 5 3 2 3 5 5 4 6 13 22 26 26 26 27 30 33 34 34 34 31 29 27 27 27 27 26 24 22 21 22 22 22 20 19 21 22 23 23 23 22 22 21 19 18 17 16 15 14 14 13 12 12 11 12 12 12 12 11 11 11 12 12 11 11 11 11 11 12 12 12 11 11 10 10 10 10 10 9 9 9 8
8 6 6 6 4 4 4 4 3 3 2 5 4 3 5 1 5 3 4 6 4 4 5 5 9 19 27 30 29 28 29 31 33 34 34 33 31 30 30 30 29 29 27 24 23 22 23 23 22 20 20 21 21 21 21 22 22 22 21 20 20 17 16 16 15 13 13 13 13 12 12 12 12 11 12 12 11 11 11 11 11 11 12 11 11 11 11 11 11 11 11 10 10 9 9 9 9
6 6 5 5 3 3 2 3 1 1 4 3 3 4 3 4 6 5 6 6 6 7 9 10 10 15 23 29 32 31 29 30 32 34 35 34 33 33 33 32 32 31 30 27 24 23 23 23 23 22 21 21 21 20 21 22 23 24 23 22 21 18 17 16 15 14 14 14 13 13 13 12 12 12 12 12 11 11 12 12 12 11 11 11 11 11 11 10 11 11 12 11 10 9 8 9 9
5 6 4 4 3 3 0 3 1 2 3 1 2 3 0 4 4 5 6 6 8 9 10 12 12 14 17 22 29 31 31 31 32 33 35 35 35 35 34 34 33 33 32 29 26 24 23 22 23 24 22 21 22 22 21 22 25 25 24 23 22 20 18 17 16 15 15 15 14 13 12 11 11 11 11 11 11 11 12 12 12 11 11 11 10 10 10 10 11 11 12 12 11 10 9 9 8
3 4 5 5 5 4 3 3 2 3 2 2 1 1 2 2 2 4 6 8 8 6 5 5 7 10 13 16 22 28 30 31 32 33 35 36 37 36 35 34 34 34 33 31 28 26 24 22 22 23 24 23 22 23 23 23 25 26 25 24 24 22 20 18 17 16 16 16 15 13 12 11 11 10 10 10 10 11 12 11 11 10 10 10 10 10 10 10 10 11 11 12 12 11 11 11 9
1 2 4 2 4 5 3 3 4 3 1 0 1 2 3 3 3 4 5 7 5 6 7 5 4 3 5 10 17 24 28 30 31 33 35 36 37 36 36 36 35 35 35 33 31 28 26 24 22 22 23 24 23 23 24 24 26 26 26 25 25 23 22 20 19 17 17 16 15 14 13 11 11 10 9 9 10 10 11 11 11 10 10 9 9 9 9 9 9 10 11 12 12 12 12 11 10
1 2 2 2 3 6 5 2 1 3 2 2 1 2 4 2 2 4 4 4 5 8 9 9 8 5 0 6 12 18 24 27 28 31 34 36 37 37 37 36 36 36 36 35 33 31 28 25 23 23 23 24 25 24 24 25 26 27 26 26 25 24 22 21 20 18 17 16 16 15 13 12 11 10 10 10 10 10 10 11 11 10 10 10 9 9 9 9 10 10 11 12 11 12 12 12 11
3 2 4 3 3 4 4 2 3 3 1 3 1 2 4 1 2 3 4 4 5 6 6 8 10 7 3 3 7 11 18 23 25 26 29 32 35 37 38 38 37 37 36 35 34 32 30 27 24 23 23 24 25 25 25 25 27 27 27 26 25 24 22 22 21 19 18 18 17 16 14 14 13 12 11 11 11 10 11 12 12 11 12 12 11 11 10 10 11 12 12 12 12 12 12 12 12
4 5 4 2 3 1 1 2 1 0 1 3 3 2 2 3 3 2 0 1 3 5 5 5 7 8 6 2 4 8 12 18 22 23 24 27 30 32 32 32 32 32 34 35 34 33 31 29 26 24 23 23 24 25 25 26 27 27 27 27 26 24 23 23 22 21 20 19 19 17 15 14 13 13 13 12 12 11 12 12 13 13 13 14 14 13 12 12 12 13 13 13 13 12 13 12 12
5 3 3 2 2 3 1 2 2 2 1 2 3 3 2 5 4 4 5 5 4 3 3 4 5 6 5 4 2 4 9 14 19 23 25 27 28 30 31 30 28 27 29 31 33 36 34 31 28 26 24 23 24 25 26 26 27 27 27 28 27 26 25 24 23 23 22 20 19 18 17 15 14 14 14 13 13 13 12 13 14 14 15 15 15 15 14 13 13 14 14 14 14 13 13 13 12
3 2 2 1 2 2 2 2 1 2 3 2 1 2 4 6 3 6 6 5 5 4 3 3 4 5 4 4 2 2 6 11 16 20 24 26 27 29 32 34 34 32 32 32 32 35 36 34 31 28 26 25 24 25 25 26 26 27 27 27 28 28 27 25 24 24 23 22 21 19 18 16 16 15 15 14 14 14 14 15 15 15 16 16 16 15 15 14 14 14 15 15 16 15 15 14 12
4 4 3 3 3 3 2 1 2 1 3 3 3 1 6 5 2 4 5 5 5 4 3 3 4 4 3 3 2 2 5 10 15 17 21 24 25 27 29 32 33 33 34 35 34 34 36 37 34 30 28 27 25 23 24 25 25 26 26 26 26 27 28 27 26 25 25 24 23 21 19 18 18 17 16 16 16 16 17 16 16 15 15 15 15 15 15 16 16 15 15 16 16 16 16 15 14
Wind_Direction
117 109 17 336 317 324 316 278 112 15 73 76 352 36 246 228 186 126 98 147 98 169 165 153 160 158 153 163 158 120 98 147 158 135 169 151 143 149 152 152 153 152 151 147 148 148 143 141 141 141 142 147 145 142 140 142 140 134 129 125 125 123 122 119 116 118 117 117 118 119 120 120 123 126 123 118 115 112 114 115 114 113 114 119 120 121 123 124 123 121 120 118 116 114 113 114 114
96 10 354 336 309 296 296 304 80 20 63 69 334 190 292 316 325 175 175 189 156 164 165 151 157 159 130 139 133 92 74 121 155 131 137 143 145 151 154 155 156 153 152 147 148 146 141 140 140 143 145 148 147 145 142 139 136 133 126 124 129 127 126 123 124 126 120 118 117 117 118 118 123 127 125 120 118 116 117 117 116 116 118 119 120 120 121 122 124 123 120 118 116 116 115 115 114
52 357 335 322 315 252 266 20 87 76 80 87 19 278 335 347 280 236 214 209 136 138 146 148 153 148 113 117 114 88 99 135 146 135 136 147 150 152 155 158 157 157 154 149 149 146 143 142 140 144 146 144 144 142 141 138 135 136 125 123 129 127 129 132 134 132 123 120 118 116 115 116 122 125 123 120 122 121 119 118 117 119 119 119 120 120 121 122 125 124 119 117 118 117 116 116 114
46 4 333 297 288 209 47 52 115 109 99 117 102 314 355 321 290 314 93 126 127 130 136 140 135 116 122 104 73 83 109 149 152 145 145 151 154 153 156 158 159 159 156 152 150 147 144 142 140 144 144 140 140 139 138 133 136 137 126 125 129 129 135 139 139 134 129 125 121 118 114 115 120 123 123 121 124 124 123 124 122 121 122 123 121 117 119 120 123 124 119 119 120 119 116 115 113
19 355 336 285 228 274 80 81 89 85 118 154 121 302 328 310 329 36 99 120 121 124 136 135 110 93 108 81 41 89 124 152 152 151 148 150 156 155 156 158 159 159 156 154 153 150 148 146 144 146 143 141 140 140 137 133 139 130 123 130 130 134 137 138 141 137 133 129 123 119 117 117 118 122 124 123 125 125 125 127 125 123 125 126 122 116 118 121 123 122 119 119 119 118 116 112 109
4 345 329 278 250 334 66 77 71 68 194 172 131 279 299 317 3 49 111 106 92 111 132 122 114 109 92 61 55 78 95 151 153 151 148 149 156 157 156 157 157 158 156 156 156 156 155 153 150 150 146 143 143 144 141 137 136 123 122 131 129 137 139 139 145 141 136 132 126 122 122 121 119 122 122 121 122 121 121 125 127 125 126 126 122 119 122 123 122 121 120 121 122 119 115 111 109
359 343 319 278 302 25 78 88 94 63 223 174 177 245 272 332 35 107 109 90 84 97 117 116 120 109 76 66 67 60 52 155 155 148 149 150 155 157 157 156 156 158 158 160 160 161 162 158 152 152 151 146 145 146 142 137 131 125 126 127 130 140 142 146 149 145 141 136 129 125 124 123 123 121 117 118 121 119 116 120 124 124 126 126 122 120 123 125 123 123 124 124 123 118 113 112 110
351 337 311 57 27 43 77 88 95 203 197 203 235 245 275 347 63 118 68 81 105 93 112 120 123 103 52 108 83 69 90 149 153 146 149 150 154 156 156 155 155 158 160 164 166 166 163 160 156 156 155 149 146 144 142 141 133 130 131 129 135 142 145 151 152 146 143 139 132 128 127 127 124 119 117 120 122 120 115 117 123 126 126 125 125 123 123 125 123 125 126 124 121 116 114 112 110
344 334 308 66 72 65 81 68 30 208 319 328 308 297 325 14 75 107 31 68 114 112 118 119 111 112 109 89 90 103 113 147 150 144 149 151 154 155 155 155 155 159 161 166 169 168 162 159 158 158 160 155 154 152 148 149 143 140 136 131 137 146 149 152 151 147 145 142 134 132 133 133 127 119 118 119 119 119 119 119 121 125 123 121 123 125 127 126 127 130 131 127 121 118 115 110 108
344 351 2 79 84 82 86 39 353 39 299 298 304 327 8 20 82 105 98 97 118 118 121 119 103 122 122 86 86 105 125 147 149 146 150 153 156 155 154 154 158 164 165 166 166 167 163 156 157 162 166 166 168 165 159 157 152 148 143 135 138 147 151 151 149 146 146 142 135 134 135 132 126 118 117 118 117 117 118 119 122 125 119 115 116 120 127 127 131 137 135 131 122 118 114 110 106
354 355 21 78 72 88 113 64 30 326 281 291 330 13 18 23 101 102 98 111 122 118 123 122 114 120 111 76 84 109 136 150 154 150 153 156 156 155 156 156 161 167 169 165 160 163 162 158 164 172 172 174 175 173 172 164 156 150 147 143 140 144 149 151 149 147 146 141 137 138 136 128 123 117 116 117 117 117 115 118 122 126 120 114 114 118 126 130 137 140 136 131 123 119 115 114 109
3 336 23 87 64 99 148 112 104 322 314 1 23 18 15 39 113 116 116 125 128 123 128 131 136 129 95 58 112 132 146 151 157 154 154 157 155 156 159 162 165 167 170 166 161 162 161 163 171 178 176 177 180 179 181 175 164 153 151 151 144 144 150 151 149 150 149 141 140 141 137 128 123 116 112 113 114 117 116 115 117 120 120 118 119 122 128 134 140 140 137 133 128 126 122 121 119
15 344 48 92 68 114 118 116 135 38 10 356 239 353 14 66 114 134 132 129 130 123 139 151 146 132 83 102 133 148 155 156 158 156 154 153 155 158 161 166 167 168 169 169 169 165 163 170 174 180 182 180 186 186 184 184 174 162 159 154 146 148 152 153 149 149 149 142 141 144 143 134 125 115 110 111 111 114 117 116 115 116 119 120 123 125 128 132 135 137 137 136 135 134 132 130 127
18 6 62 102 73 102 105 131 135 100 57 292 279 4 39 85 107 136 130 121 111 116 146 151 146 126 111 124 150 166 161 161 159 156 153 149 156 158 161 168 169 171 172 173 176 170 170 174 174 184 187 183 189 191 187 186 182 172 166 158 149 151 154 156 149 146 148 145 148 152 148 139 128 116 110 111 112 114 116 117 119 119 122 126 129 131 131 131 131 135 137 138 139 137 136 134 130
15 22 70 105 61 73 126 161 135 127 197 261 309 37 78 99 118 129 124 120 19 139 141 149 144 106 159 164 174 173 163 163 161 155 151 146 156 160 164 170 174 177 178 179 179 178 177 177 174 183 189 184 187 194 192 187 187 178 169 166 155 153 157 160 154 148 148 148 156 155 148 144 133 120 112 112 112 112 115 119 121 122 128 131 135 136 136 136 135 137 139 140 141 140 139 136 133
16 47 63 83 89 129 159 164 141 132 215 241 228 102 95 100 128 120 116 125 122 142 134 154 156 41 190 178 164 167 163 165 163 157 155 154 160 161 166 173 179 180 181 181 182 187 184 182 178 180 186 183 182 189 191 187 192 185 174 170 162 157 161 165 159 151 149 147 153 150 146 147 138 125 116 114 113 111 115 119 123 127 133 136 137 140 140 142 142 142 141 140 140 140 141 139 136
2 58 58 71 131 170 176 175 170 150 190 224 215 169 127 108 129 112 112 141 139 150 100 159 183 334 197 172 155 162 164 168 167 164 165 165 166 164 168 174 180 180 181 182 185 193 191 189 183 177 179 181 183 188 191 188 192 188 177 170 166 162 161 163 158 151 149 147 151 150 147 145 135 126 118 117 117 114 117 120 125 129 133 135 136 138 140 141 141 142 141 140 140 140 142 143 142
69 70 73 117 187 192 186 181 176 136 145 200 203 170 135 124 123 110 113 135 141 149 96 149 184 335 174 164 154 163 167 172 174 174 174 173 174 174 175 177 182 182 182 185 190 193 191 192 186 178 177 181 183 184 189 188 190 188 178 173 170 164 161 162 157 149 150 150 153 152 146 138 129 124 119 120 119 117 121 123 126 128 129 130 131 133 132 133 133 135 136 138 139 141 143 145 147
149 80 62 216 211 208 187 162 162 134 137 155 170 158 135 123 113 127 134 140 145 130 104 137 131 124 155 160 160 169 172 175 180 182 182 180 180 183 186 184 185 186 184 187 190 188 187 189 190 184 181 189 186 179 186 185 187 186 179 179 174 166 164 163 155 148 150 151 153 150 142 134 128 126 123 122 120 120 125 125 125 125 125 125 125 124 123 123 124 127 129 132 135 139 145 149 153
181 110 61 253 230 42 9 144 165 153 141 138 145 154 142 128 110 133 151 149 154 149 146 145 141 147 157 164 169 175 176 182 185 187 191 188 191 195 197 193 190 191 188 188 187 185 185 185 192 195 189 193 189 177 181 182 181 179 178 180 175 167 164 157 150 149 151 150 149 146 139 134 132 130 126 125 125 126 126 123 121 120 119 117 115 113 113 114 116 121 125 130 139 150 160 168 179
174 152 181 253 216 81 351 205 172 137 138 134 133 143 151 146 112 131 145 139 195 196 181 175 169 167 167 171 176 179 180 184 187 190 196 195 201 202 204 204 198 197 192 188 184 183 184 182 189 200 196 192 188 176 175 179 176 175 178 180 174 165 158 151 147 149 148 147 148 143 138 134 133 130 128 131 131 129 126 121 119 117 114 110 107 105 106 111 118 127 135 147 165 180 189 201 209
146 168 223 261 169 92 347 236 176 136 128 124 125 137 176 168 116 159 159 160 214 203 193 191 186 177 175 176 179 182 184 186 188 192 195 200 206 203 203 204 200 198 193 185 182 183 182 183 187 195 197 190 188 179 175 178 176 176 179 176 170 159 152 152 150 147 145 148 148 140 135 133 133 133 134 137 135 131 126 122 120 115 111 106 102 100 104 115 127 138 152 170 187 195 203 211 216
149 315 34 52 103 80 66 187 167 121 107 113 123 149 184 158 98 169 183 196 210 203 195 191 188 182 178 179 180 184 188 191 193 194 197 203 207 205 199 200 202 196 188 183 183 184 184 184 186 191 192 188 186 180 178 181 180 178 177 170 162 155 154 156 154 150 148 149 144 136 133 134 137 138 139 139 137 133 128 125 121 115 109 103 100 100 108 121 130 144 164 190 209 213 213 217 219
124 16 24 51 74 77 112 161 147 113 93 76 97 157 169 161 149 158 195 207 213 205 193 189 185 180 179 182 185 187 190 194 197 200 204 209 213 209 199 201 201 193 187 186 187 186 186 183 184 187 185 184 182 178 177 180 178 174 172 164 155 154 157 159 158 157 154 148 139 133 134 136 139 139 140 141 138 135 131 127 122 116 110 105 103 103 111 120 125 141 159 214 246 245 233 232 234
82 53 12 61 74 84 125 149 144 150 165 152 80 159 159 145 161 164 212 211 212 202 189 185 181 179 181 185 189 192 195 198 203 206 207 213 217 208 202 203 199 195 189 189 191 185 181 179 180 182 179 180 180 175 172 170 169 166 165 158 151 150 153 156 159 159 154 145 136 132 135 137 140 141 142 142 140 139 135 130 124 120 115 110 109 108 112 116 118 124 98 357 315 320 310 262 233
114 98 63 77 66 81 112 101 83 95 103 166 144 128 142 115 150 183 228 200 199 192 183 181 180 180 184 188 192 195 198 200 205 209 208 213 215 210 206 202 197 195 189 191 193 182 177 175 176 176 174 176 176 170 163 161 162 158 156 152 148 146 146 149 152 153 149 142 136 135 137 139 141 143 144 145 144 143 138 134 130 126 121 119 117 117 119 116 113 100 59 7 359 21 39 47 147
120 104 81 74 73 76 79 66 64 74 67 71 110 183 272 117 139 282 140 167 179 177 172 178 180 182 186 190 194 197 201 204 207 211 210 214 217 214 208 201 197 193 187 187 185 180 177 173 172 172 170 170 169 162 155 155 156 153 150 149 147 144 142 142 142 143 142 139 138 138 140 142 144 146 148 149 148 145 143 140 137 132 130 128 124 124 122 113 105 79 39 9 10 17 25 36 71
113 106 80 49 65 67 47 52 45 42 68 42 74 162 309 45 84 334 149 159 172 172 168 175 180 183 188 191 195 199 205 207 209 215 216 220 223 217 210 203 197 188 179 176 178 177 175 172 171 169 166 165 162 155 151 151 152 151 150 148 146 142 137 134 133 134 135 137 138 141 142 144 147 149 150 151 151 151 150 147 144 142 141 138 134 132 126 118 106 64 30 10 0 3 7 13 66
97 95 88 28 41 55 37 21 6 14 269 303 48 113 335 358 26 37 153 160 170 171 169 175 180 185 189 193 197 201 207 211 213 219 224 227 231 224 209 201 196 184 170 170 174 173 171 171 171 167 162 161 158 153 151 151 152 152 151 150 146 141 135 131 131 132 134 136 140 144 145 148 150 151 153 155 156 157 156 153 152 151 149 150 150 152 150 148 135 55 28 9 353 5 19 29 98
78 66 82 71 13 30 63 21 354 31 240 287 38 131 283 290 327 120 158 163 164 165 170 177 181 186 190 195 200 203 209 214 217 220 226 229 230 222 205 197 195 183 172 173 172 169 169 170 169 165 158 156 155 152 152 153 154 154 154 153 148 142 136 133 133 134 137 138 142 147 148 150 152 153 156 158 160 161 161 160 159 157 155 155 162 172 179 179 173 26 19 3 347 2 25 91 124
83 61 20 85 36 325 130 167 163 108 244 321 49 143 245 275 313 133 165 169 165 164 172 179 181 186 192 198 202 207 211 216 222 221 224 229 225 214 201 197 193 185 181 176 170 167 166 167 166 160 154 154 154 152 153 155 156 156 156 153 149 144 138 135 135 136 139 139 139 146 151 153 155 157 159 162 164 166 167 167 163 158 154 158 174 190 198 197 205 4 9 352 335 347 14 124 140
66 52 323 9 63 338 149 168 174 173 300 13 50 133 264 278 283 168 173 177 171 170 176 181 183 187 195 202 205 209 212 218 223 220 220 221 216 207 198 197 195 189 185 179 172 168 164 163 161 156 153 152 153 153 155 157 158 159 156 153 149 145 140 138 139 137 138 140 138 141 152 160 162 163 166 167 167 170 174 174 166 157 156 167 177 187 197 210 324 358 356 332 322 333 351 177 171
355 40 309 314 53 40 11 160 188 209 359 29 38 127 191 284 275 193 183 184 178 175 180 183 188 192 196 202 205 209 210 215 220 218 214 210 205 201 197 195 196 190 184 184 178 168 162 161 158 156 154 153 154 155 157 159 161 160 157 155 153 148 144 144 146 142 139 142 143 143 151 165 169 170 172 170 169 176 181 179 170 165 172 173 166 184 194 222 335 344 329 312 315 325 328 199 185
317 33 23 273 49 69 350 13 192 203 49 45 41 107 194 279 300 161 182 191 187 182 185 188 194 198 200 201 204 208 210 214 217 214 209 203 197 194 196 194 194 190 185 187 182 169 162 159 158 157 156 156 158 159 160 162 163 161 161 162 161 154 148 150 154 152 145 144 150 149 150 165 175 176 174 174 177 183 187 187 180 181 187 173 167 190 193 239 301 311 314 307 316 325 303 193 192
179 173 128 233 51 98 286 313 189 162 71 117 83 87 236 295 330 69 170 192 196 195 193 194 198 202 203 202 203 207 211 215 215 211 206 201 194 189 193 194 192 189 185 186 183 172 164 161 160 159 159 161 162 161 163 165 166 166 169 172 171 166 161 161 161 160 156 151 157 158 152 162 176 179 179 184 189 191 196 194 185 188 190 177 182 198 197 237 253 271 296 289 299 326 309 226 238
156 173 151 150 155 211 214 185 164 149 101 163 172 207 254 305 318 323 124 187 197 202 202 201 201 200 201 201 203 207 211 214 211 207 206 201 195 190 190 195 193 189 187 185 183 176 169 166 164 163 163 165 166 166 167 169 172 174 177 180 177 173 173 173 168 165 161 155 160 162 156 164 180 187 190 195 198 200 202 193 187 192 188 181 205 210 211 235 244 250 268 274 277 303 315 289 279
125 137 131 147 141 47 217 116 133 154 134 251 204 230 275 286 289 278 299 185 195 199 202 204 201 198 199 199 201 205 209 211 208 207 208 204 199 194 193 195 192 189 189 187 185 179 174 172 170 169 169 170 172 173 175 176 177 179 181 180 177 177 178 177 171 166 162 156 161 163 166 184 194 198 200 201 205 208 205 194 193 197 193 200 216 224 236 246 253 250 250 265 277 284 288 288 293
112 130 136 127 129 196 283 102 148 155 135 289 134 298 272 252 226 257 265 212 193 193 194 200 200 198 199 200 200 202 205 207 207 208 209 207 204 200 196 196 193 192 192 191 188 182 178 178 177 175 174 176 177 180 182 181 180 179 178 175 174 176 174 169 164 161 158 157 164 173 191 208 208 209 210 208 211 214 209 203 202 204 208 215 218 232 251 254 259 259 258 266 271 277 280 277 294
130 121 126 127 169 166 340 15 124 122 84 288 208 208 262 259 214 222 228 224 212 196 192 197 199 198 197 198 198 198 200 204 207 208 208 207 207 205 200 197 197 196 195 195 193 187 184 182 181 180 180 180 181 184 186 183 181 179 177 173 173 172 166 158 157 159 159 158 169 188 202 208 208 211 214 213 215 218 215 210 210 214 219 223 226 234 249 258 259 261 269 279 277 279 284 284 294
154 129 123 197 208 166 175 295 100 75 87 146 165 193 270 283 252 229 216 216 227 214 200 198 199 200 200 199 199 198 198 202 205 206 207 207 207 209 206 201 198 199 198 197 196 194 191 187 184 184 185 184 185 187 187 184 183 183 180 178 177 177 172 170 173 177 176 176 193 205 205 201 201 206 212 213 217 222 223 217 216 222 225 231 239 238 249 261 261 263 272 287 290 286 287 288 296
249 168 167 190 191 173 135 137 118 40 37 113 104 38 303 276 251 254 218 207 226 230 220 207 202 205 209 207 203 202 202 202 203 203 205 206 207 210 210 206 201 202 202 200 200 198 195 191 188 188 190 189 189 189 188 187 187 188 186 184 187 190 190 194 199 198 195 202 214 219 215 206 201 204 209 211 217 224 228 224 222 227 230 238 247 248 254 261 266 273 277 288 290 285 287 292 301
308 212 197 171 152 134 110 124 116 50 333 223 107 49 300 296 266 257 266 191 221 228 225 218 210 209 215 214 208 205 204 204 205 207 207 208 209 210 211 210 206 207 208 204 203 203 200 197 193 192 193 193 193 192 190 190 191 192 191 192 195 197 200 204 207 207 207 214 225 228 223 215 209 208 210 213 219 224 229 231 231 233 237 243 249 252 256 259 266 274 281 290 287 279 281 287 300
313 245 187 141 127 129 132 138 124 102 226 273 84 135 268 321 311 278 313 258 232 237 232 227 221 216 216 215 211 209 206 203 205 209 211 212 213 211 211 212 210 211 212 207 205 206 204 203 199 196 196 197 197 195 193 194 195 196 198 199 202 204 206 209 208 212 222 228 235 234 226 218 214 214 215 217 220 222 228 235 239 242 245 249 249 251 256 258 263 271 277 286 285 279 280 284 291
276 277 134 131 134 141 149 141 119 156 179 357 25 107 127 310 282 290 310 227 238 247 235 234 229 224 221 215 213 213 210 207 206 207 210 216 218 216 214 214 214 214 214 210 208 208 207 207 204 200 199 198 197 195 196 199 201 203 205 207 211 214 216 220 220 221 227 231 233 229 224 219 217 217 219 221 222 222 228 235 241 245 248 251 249 251 256 256 261 269 273 278 280 280 284 290 291
291 18 96 115 122 122 129 113 97 124 95 7 328 68 84 277 275 319 348 192 240 244 229 230 230 227 224 218 215 215 214 213 211 210 213 219 222 222 219 217 216 215 214 214 214 212 210 209 206 202 201 201 199 198 200 204 207 210 213 217 222 224 227 235 240 239 236 233 231 224 220 220 217 218 220 223 224 225 231 236 239 243 247 248 248 251 254 253 256 264 269 273 275 276 282 291 293
189 92 83 78 75 81 80 84 89 45 60 269 270 148 112 275 285 330 13 194 244 245 230 221 224 227 226 222 217 215 216 216 215 216 218 222 226 226 223 220 218 217 217 218 218 216 212 209 208 205 203 205 206 205 205 207 210 214 218 225 231 233 233 238 243 244 238 233 231 223 219 221 219 217 220 223 226 229 232 235 238 241 242 244 246 249 251 251 253 259 267 272 271 273 280 290 293
129 92 77 73 54 53 55 53 80 58 7 259 246 184 125 289 286 276 218 215 223 237 256 229 216 221 224 224 221 216 216 217 217 218 219 222 226 226 224 221 219 219 219 218 218 219 216 212 211 208 206 207 211 213 213 211 212 217 221 227 234 237 236 238 240 238 233 230 229 223 220 222 220 219 222 224 226 229 231 235 239 240 241 245 248 248 248 249 252 258 266 271 274 276 279 285 290
104 85 88 82 27 15 32 357 35 80 264 261 244 159 121 202 262 252 246 253 238 222 251 250 217 217 219 220 220 218 217 217 217 218 218 219 221 221 221 220 220 219 219 220 218 219 220 217 214 213 211 211 213 218 220 218 217 220 224 229 233 235 235 238 238 235 231 228 226 222 220 222 222 221 224 226 228 230 233 237 240 240 240 245 249 249 249 250 253 259 263 266 272 279 280 279 281
78 95 90 77 32 17 32 310 334 184 242 252 181 137 120 237 241 244 259 264 255 239 245 251 239 226 221 219 219 217 217 218 217 217 217 217 218 218 219 219 219 219 220 221 220 220 222 221 218 216 216 218 218 221 225 227 225 223 226 230 231 230 231 235 236 233 232 228 225 222 222 224 224 224 228 231 232 233 235 237 238 237 238 244 248 249 251 252 254 257 258 259 265 276 279 277 277
120 131 114 104 101 69 259 263 302 251 267 333 160 147 85 280 257 229 240 265 278 276 269 264 258 247 235 226 221 218 216 217 218 218 216 217 218 218 219 220 219 220 221 222 222 222 224 224 222 220 220 222 223 223 227 232 231 227 227 229 229 228 228 232 232 232 232 231 227 225 226 227 228 231 234 235 234 233 234 234 235 236 238 242 247 251 254 254 254 254 254 255 259 268 275 275 276
164 163 132 137 151 141 189 213 191 217 258 341 279 197 172 234 253 224 250 289 297 308 307 287 280 266 253 240 226 219 216 216 217 218 217 218 219 219 220 220 220 221 221 222 223 224 226 226 226 224 223 224 224 225 228 232 231 228 226 226 227 228 230 233 233 231 232 232 230 229 229 229 232 237 237 234 232 231 232 234 236 239 240 243 248 251 254 253 253 254 255 257 260 266 271 269 269
213 143 102 127 172 143 140 173 172 172 155 223 244 227 207 215 256 272 303 311 322 19 33 41 27 327 259 242 231 222 218 216 216 217 217 218 219 220 220 221 221 222 222 223 223 224 226 228 228 228 227 227 227 228 230 231 230 228 226 225 226 228 232 235 234 231 231 232 233 233 232 234 238 239 234 231 230 229 232 234 236 239 241 242 243 246 250 252 253 256 258 261 262 264 266 265 268
152 82 131 213 155 118 114 142 49 76 121 252 246 253 293 322 276 290 346 351 351 14 26 38 42 43 225 239 235 227 222 217 217 217 217 218 218 220 221 222 222 222 222 223 225 226 227 229 229 229 229 229 230 231 232 232 229 228 227 226 227 229 232 235 235 234 234 235 236 235 236 239 240 237 232 230 232 233 234 234 235 241 242 238 236 239 244 247 251 255 258 260 259 260 262 266 272
111 133 195 195 103 93 104 115 18 41 181 269 310 237 282 325 250 297 2 10 347 348 1 25 40 48 40 263 244 236 227 220 218 219 220 220 220 221 222 223 225 225 225 227 227 228 229 230 231 231 230 230 230 231 232 232 229 227 227 228 230 230 233 236 237 237 238 240 239 237 237 238 238 237 235 234 236 236 235 234 236 241 240 234 233 236 240 243 248 251 253 256 258 260 263 267 271
101 161 165 117 119 132 45 110 135 85 228 288 312 296 261 210 224 267 66 284 308 320 334 6 25 32 34 359 257 244 232 223 220 220 220 220 220 221 220 220 222 223 226 229 231 231 230 230 232 233 235 235 233 232 232 232 230 229 228 230 231 232 234 236 238 239 240 242 242 240 239 240 239 240 239 237 237 235 234 235 237 240 238 233 235 239 241 245 249 251 253 255 257 260 263 264 267
60 88 63 44 125 152 137 118 154 165 158 269 306 334 283 230 220 179 184 221 237 269 317 340 348 2 23 26 328 250 236 227 222 221 222 221 220 220 221 221 221 222 224 227 229 230 231 232 233 234 236 238 237 235 233 232 231 230 231 231 232 233 234 236 239 240 241 243 244 242 241 241 242 242 240 238 237 235 234 235 235 236 235 233 236 240 244 250 254 258 260 260 260 260 260 262 265
82 56 22 19 73 122 142 84 79 128 140 181 258 321 274 251 212 172 189 220 213 209 244 290 332 360 13 12 5 248 237 230 230 230 228 227 225 224 225 225 227 229 230 228 228 230 232 233 234 234 236 237 236 236 234 233 232 232 232 233 234 235 235 236 239 241 242 243 244 243 242 243 244 242 240 240 240 239 237 237 237 238 238 238 240 243 248 254 257 261 265 266 265 262 260 261 262
146 161 178 153 119 120 121 358 320 89 117 163 157 252 272 260 215 183 187 206 218 211 218 265 331 14 11 351 334 266 242 231 236 238 234 232 230 228 229 228 227 231 233 232 230 230 231 233 234 235 236 237 237 236 235 233 232 232 233 234 236 237 236 237 238 241 242 242 243 244 243 244 243 241 240 241 242 242 242 243 245 247 248 248 249 250 252 254 256 260 264 264 262 260 258 259 258